Sigfox identifier Datetime Temperature Humidity SNR
003C0D44 2019-02-20 14:05:19 20.8 21 25.3
003C0D44 2019-02-20 13:35:07 20.8 22 25.3
003C0D44 2019-02-20 13:04:57 20.8 24 24.8
003C0D44 2019-02-20 12:34:46 20.8 24 24.2
003C0D44 2019-02-20 12:04:36 20.8 25 24.3
003C0D44 2019-02-20 11:34:26 20.8 25 23.6
003C0D44 2019-02-20 11:04:16 20.8 26 22.7
003C0D44 2019-02-20 10:34:06 20.8 27 22.8
003C0D44 2019-02-20 10:03:56 20.7 27 21.9
003C0D44 2019-02-20 09:33:47 20.7 27 21.9
003C0D44 2019-02-20 09:03:38 20.7 27 20.6
003C0D44 2019-02-20 08:33:30 20.6 27 20.7
003C0D44 2019-02-20 08:03:22 20.6 27 20.7
003C0D44 2019-02-20 07:33:13 20.7 27 20.9
003C0D44 2019-02-20 07:03:03 20.7 27 20.7
003C0D44 2019-02-20 06:32:53 20.7 27 19.3
003C0D44 2019-02-20 06:02:44 20.7 27 19.3
003C0D44 2019-02-20 05:32:34 20.7 27 19.4
003C0D44 2019-02-20 05:02:24 20.7 27 19.3
003C0D44 2019-02-20 04:32:14 20.7 27 19.3
003C0D44 2019-02-20 04:02:04 20.7 27 19.1
003C0D44 2019-02-20 03:31:54 20.7 27 19.2
003C0D44 2019-02-20 03:01:45 20.7 27 19
003C0D44 2019-02-20 02:31:36 20.7 27 19
003C0D44 2019-02-20 02:01:26 20.7 27 18.9
003C0D44 2019-02-20 01:31:17 20.7 27 18.8
003C0D44 2019-02-20 01:01:08 20.7 27 18.8
003C0D44 2019-02-20 00:30:58 20.7 27 18.6
003C0D44 2019-02-20 00:00:48 20.7 27 18.4
003C0D44 2019-02-19 23:30:38 20.8 27 18.2
003C0D44 2019-02-19 23:00:30 20.8 27 18.2
003C0D44 2019-02-19 22:30:20 20.8 27 18.1
003C0D44 2019-02-19 22:00:10 21 27 17.7
003C0D44 2019-02-19 21:59:00 20.8 27 17.8
003C0D44 2019-02-19 21:28:50 20.8 27 19.9
003C0D44 2019-02-19 20:58:41 20.8 27 19.7
003C0D44 2019-02-19 20:28:32 20.9 27 19.4
003C0D44 2019-02-19 19:58:23 20.9 27 19.1
003C0D44 2019-02-19 19:28:14 20.9 27 19
003C0D44 2019-02-19 18:58:04 21 27 18.7
003C0D44 2019-02-19 18:27:54 21 27 18.5
003C0D44 2019-02-19 17:57:48 21.1 27 18.3
003C0D44 2019-02-19 17:27:35 21.1 27 18.4
003C0D44 2019-02-19 16:57:28 21.1 28 18.2
003C0D44 2019-02-19 16:27:16 21.1 28 18
003C0D44 2019-02-19 15:57:06 21 27 18
003C0D44 2019-02-19 15:26:55 21 27 18
003C0D44 2019-02-19 14:56:46 21.1 27 18.1
003C0D44 2019-02-19 14:26:38 21 28 18.2
003C0D44 2019-02-19 13:56:26 21 28 18.5
003C0D44 2019-02-19 13:26:17 21 27 18.6
003C0D44 2019-02-19 12:56:08 21 27 18.6
003C0D44 2019-02-19 12:25:57 21 27 18.7
003C0D44 2019-02-19 11:55:48 21 27 18.9
003C0D44 2019-02-19 11:25:41 20.9 27 18.9
003C0D44 2019-02-19 10:55:32 20.9 27 19.1
003C0D44 2019-02-19 10:25:23 20.8 27 19.2
003C0D44 2019-02-19 09:55:14 20.8 26 19.1
003C0D44 2019-02-19 09:24:59 20.7 26 16.5
003C0D44 2019-02-19 08:54:49 20.7 26 16.4
003C0D44 2019-02-19 08:24:41 20.7 26 16.8
003C0D44 2019-02-19 07:54:31 20.7 25 16.9
003C0D44 2019-02-19 07:24:19 20.7 25 17
003C0D44 2019-02-19 06:54:09 20.7 25 16.9
003C0D44 2019-02-19 06:24:00 20.7 25 16.9
003C0D44 2019-02-19 05:53:47 20.7 25 17.1
003C0D44 2019-02-19 05:23:38 20.7 25 17.2
003C0D44 2019-02-19 04:53:29 20.7 25 16.9
003C0D44 2019-02-19 04:23:19 20.7 24 16.8
003C0D44 2019-02-19 03:53:08 20.7 24 16.8
003C0D44 2019-02-19 03:22:57 20.7 24 19.4
003C0D44 2019-02-19 02:52:48 20.7 24 19.4
003C0D44 2019-02-19 02:22:36 20.7 24 19.3
003C0D44 2019-02-19 01:52:29 20.7 24 19.1
003C0D44 2019-02-19 01:22:18 20.7 24 18.9
003C0D44 2019-02-19 00:52:05 20.7 24 19.1
003C0D44 2019-02-19 00:21:56 20.7 24 19.1
003C0D44 2019-02-18 23:51:48 20.7 23 19.2
003C0D44 2019-02-18 23:21:37 20.7 23 19.4
003C0D44 2019-02-18 22:51:26 20.7 23 19.7
003C0D44 2019-02-18 22:21:17 20.7 23 19.6
003C0D44 2019-02-18 21:51:07 20.8 23 19.6
003C0D44 2019-02-18 21:20:57 21 23 20
003C0D44 2019-02-18 21:19:47 20.8 23 20
003C0D44 2019-02-18 20:49:37 20.8 23 20.2
003C0D44 2019-02-18 20:19:31 20.8 23 20.5
003C0D44 2019-02-18 19:49:17 20.8 22 20.7
003C0D44 2019-02-18 19:19:07 20.8 22 20.8
003C0D44 2019-02-18 18:48:57 20.9 22 20.9
003C0D44 2019-02-18 18:18:48 20.9 22 21
003C0D44 2019-02-18 17:48:40 21 22 21.3
003C0D44 2019-02-18 17:18:28 21 22 21.4
003C0D44 2019-02-18 16:48:18 21 22 21.7
003C0D44 2019-02-18 16:18:10 21 22 21.9
003C0D44 2019-02-18 15:48:02 21.1 21 22.1
003C0D44 2019-02-18 15:17:47 21.1 21 22.1
003C0D44 2019-02-18 14:47:39 21.2 21 22.2
003C0D44 2019-02-18 14:17:27 21.2 21 22.4
003C0D44 2019-02-18 13:47:17 21.2 20 22.6
003C0D44 2019-02-18 13:17:06 21.3 20 22.8
003C0D44 2019-02-18 12:46:55 21.4 20 22.8
003C0D44 2019-02-18 12:16:45 21.5 20 23
003C0D44 2019-02-18 11:46:35 21.4 20 23.1
003C0D44 2019-02-18 11:16:24 21.4 19 23
003C0D44 2019-02-18 10:46:13 21.3 19 23.1
003C0D44 2019-02-18 10:16:02 21.2 19 23.8
003C0D44 2019-02-18 09:45:52 21.2 19 23.9
003C0D44 2019-02-18 09:15:41 21.2 19 24
003C0D44 2019-02-18 08:45:31 21.1 19 24.1
003C0D44 2019-02-18 08:15:21 21 19 24.2
003C0D44 2019-02-18 07:45:10 21 19 24.1
003C0D44 2019-02-18 07:15:00 21 18 24.1
003C0D44 2019-02-18 06:44:48 20.9 18 24.1
003C0D44 2019-02-18 06:14:37 20.9 18 24.2
003C0D44 2019-02-18 05:44:28 21 18 24.2
003C0D44 2019-02-18 05:14:18 21 18 24.1
003C0D44 2019-02-18 04:44:08 21 19 24.2
003C0D44 2019-02-18 04:13:58 21 19 24.2
003C0D44 2019-02-18 03:43:47 21 19 24.2
003C0D44 2019-02-18 03:13:37 21 19 24.2
003C0D44 2019-02-18 02:43:27 21 19 23.6
003C0D44 2019-02-18 02:13:17 21 19 23.6
003C0D44 2019-02-18 01:43:08 21 19 23.7
003C0D44 2019-02-18 01:12:58 21 19 23.7
003C0D44 2019-02-18 00:42:48 21 19 23.7
003C0D44 2019-02-18 00:12:39 21 19 23.7
003C0D44 2019-02-17 23:42:28 21 19 23.6
003C0D44 2019-02-17 23:12:18 21 19 23.5
003C0D44 2019-02-17 22:42:09 21.1 19 23.6
003C0D44 2019-02-17 22:11:59 21.1 19 23.6
003C0D44 2019-02-17 21:41:48 21 19 23
003C0D44 2019-02-17 21:11:38 21.1 20 23
003C0D44 2019-02-17 20:41:28 21.3 19 22.9
003C0D44 2019-02-17 20:40:18 21.1 20 22.9
003C0D44 2019-02-17 20:10:08 21.1 20 22.8
003C0D44 2019-02-17 19:39:58 21.1 20 22.8
003C0D44 2019-02-17 19:09:49 21.1 20 22.8
003C0D44 2019-02-17 18:39:38 21.1 20 22.8
003C0D44 2019-02-17 18:09:29 21.1 20 22.9
003C0D44 2019-02-17 17:39:20 21.2 20 22.9
003C0D44 2019-02-17 17:09:11 21.2 20 23
003C0D44 2019-02-17 16:39:03 21.2 20 22.9
003C0D44 2019-02-17 16:08:54 21.2 20 22.9
003C0D44 2019-02-17 15:38:45 21.2 20 22.9
003C0D44 2019-02-17 15:08:36 21.2 20 23
003C0D44 2019-02-17 14:38:27 21.2 20 23.1
003C0D44 2019-02-17 14:08:18 21.2 20 23.2
003C0D44 2019-02-17 13:38:10 21.2 20 23.1
003C0D44 2019-02-17 13:08:00 21.2 21 23
003C0D44 2019-02-17 12:37:51 21.2 21 23.1
003C0D44 2019-02-17 12:07:42 21.2 21 23.1
003C0D44 2019-02-17 11:37:33 21.1 21 23.2
003C0D44 2019-02-17 11:07:24 21.1 21 23.2
003C0D44 2019-02-17 10:37:14 21.1 21 23.3
003C0D44 2019-02-17 10:07:05 21.1 21 23.3
003C0D44 2019-02-17 09:36:54 21.1 21 23.2
003C0D44 2019-02-17 09:06:45 21.1 21 23.2
003C0D44 2019-02-17 08:36:35 21.1 21 23.1
003C0D44 2019-02-17 08:06:25 21.1 21 23.1
003C0D44 2019-02-17 07:36:15 21.1 21 23.1
003C0D44 2019-02-17 07:06:06 21.1 22 23.2
003C0D44 2019-02-17 06:35:56 21.1 22 23.2
003C0D44 2019-02-17 06:05:48 21.1 22 23.2
003C0D44 2019-02-17 05:35:38 21.1 22 23.2
003C0D44 2019-02-17 05:05:30 21.1 22 23.1
003C0D44 2019-02-17 04:35:21 21.1 22 23.2
003C0D44 2019-02-17 04:05:12 21.1 23 23.2
003C0D44 2019-02-17 03:35:03 21.1 23 23.3
003C0D44 2019-02-17 03:04:54 21.2 23 23.2
003C0D44 2019-02-17 02:34:47 21.1 23 23.2
003C0D44 2019-02-17 02:04:38 21.1 24 23.1
003C0D44 2019-02-17 01:34:29 21.1 24 22.9
003C0D44 2019-02-17 01:04:21 21.1 24 23
003C0D44 2019-02-17 00:34:12 21.1 24 23
003C0D44 2019-02-17 00:04:03 21.2 24 23
003C0D44 2019-02-16 23:33:54 21.2 24 22.9
003C0D44 2019-02-16 23:03:44 21.2 24 22.8
003C0D44 2019-02-16 22:33:35 21.2 24 22.9
003C0D44 2019-02-16 22:03:25 21.2 24 22.8
003C0D44 2019-02-16 21:33:15 21.2 25 22.9
003C0D44 2019-02-16 21:03:05 21.2 25 22.9
003C0D44 2019-02-16 20:32:54 21.2 25 22.8
003C0D44 2019-02-16 20:02:45 21.4 24 22.8
003C0D44 2019-02-16 20:01:34 21.2 25 22.8
003C0D44 2019-02-16 19:31:25 21.2 25 22.8
003C0D44 2019-02-16 19:01:15 21.2 25 22.8
003C0D44 2019-02-16 18:31:05 21.2 25 22.7
003C0D44 2019-02-16 18:00:55 21.3 25 22.7
003C0D44 2019-02-16 17:30:46 21.3 25 22.7
003C0D44 2019-02-16 17:00:37 21.4 25 22.7
003C0D44 2019-02-16 16:30:26 21.4 25 22.7
003C0D44 2019-02-16 16:00:16 21.4 25 22.7
003C0D44 2019-02-16 15:30:06 21.4 25 22.7
003C0D44 2019-02-16 14:59:56 21.4 25 22.7
003C0D44 2019-02-16 14:29:47 21.4 25 22.7
003C0D44 2019-02-16 13:59:37 21.4 25 22.6
003C0D44 2019-02-16 13:29:27 21.3 25 22.7
003C0D44 2019-02-16 12:59:17 21.3 25 22.7
003C0D44 2019-02-16 12:29:07 21.3 25 22.7
003C0D44 2019-02-16 11:58:58 21.3 25 22.7
003C0D44 2019-02-16 11:28:47 21.2 25 22.6
003C0D44 2019-02-16 10:58:37 21.2 25 22.7
003C0D44 2019-02-16 10:28:26 21.1 25 22.6
003C0D44 2019-02-16 09:58:15 21.2 25 22.7
003C0D44 2019-02-16 09:28:06 21.2 25 22.5
003C0D44 2019-02-16 08:57:55 21.1 25 22.7
003C0D44 2019-02-16 08:27:43 21.2 25 22.8
003C0D44 2019-02-16 07:57:33 21.1 25 22.9
003C0D44 2019-02-16 07:27:22 21.2 25 22.9
003C0D44 2019-02-16 06:57:12 21.2 25 23.1
003C0D44 2019-02-16 06:27:00 21.2 25 23.1
003C0D44 2019-02-16 05:56:49 21.2 25 23.2
003C0D44 2019-02-16 05:26:38 21.2 25 23.2
003C0D44 2019-02-16 04:56:26 21.2 25 23.2
003C0D44 2019-02-16 04:26:18 21.2 25 23.2
003C0D44 2019-02-16 03:56:05 21.2 25 23.1
003C0D44 2019-02-16 03:25:54 21.2 25 23.1
003C0D44 2019-02-16 02:55:44 21.2 25 23
003C0D44 2019-02-16 02:25:33 21.2 25 22.9
003C0D44 2019-02-16 01:55:23 21.3 25 22.9
003C0D44 2019-02-16 01:25:12 21.2 25 22.8
003C0D44 2019-02-16 00:55:03 21.3 25 22.8
003C0D44 2019-02-16 00:24:53 21.3 25 22.8
003C0D44 2019-02-15 23:54:43 21.3 25 22.8
003C0D44 2019-02-15 23:24:32 21.4 25 22.8
003C0D44 2019-02-15 22:54:21 21.4 25 22.8
003C0D44 2019-02-15 22:24:12 21.5 25 22.7
003C0D44 2019-02-15 21:54:02 21.5 25 22.6
003C0D44 2019-02-15 21:23:52 21.5 25 22.5
003C0D44 2019-02-15 20:53:42 21.6 25 22.6
003C0D44 2019-02-15 20:23:31 21.6 25 22.4
003C0D44 2019-02-15 19:53:22 21.7 25 22.3
003C0D44 2019-02-15 19:23:11 21.9 25 22.2
003C0D44 2019-02-15 19:22:02 21.7 25 22.1
003C0D44 2019-02-15 18:51:52 21.8 25 21.9
003C0D44 2019-02-15 18:21:42 21.8 25 21.9
003C0D44 2019-02-15 17:51:32 21.8 25 21.8
003C0D44 2019-02-15 17:21:24 21.8 25 21.7
003C0D44 2019-02-15 16:51:14 21.8 24 21.6
003C0D44 2019-02-15 16:21:05 21.8 24 21.5
003C0D44 2019-02-15 15:50:56 21.8 24 21.5
003C0D44 2019-02-15 15:20:46 21.8 24 21.4
003C0D44 2019-02-15 14:50:36 21.8 23 21.4
003C0D44 2019-02-15 14:20:27 21.8 23 21.6
003C0D44 2019-02-15 13:50:18 21.8 24 21.6
003C0D44 2019-02-15 13:20:09 21.7 24 21.6
003C0D44 2019-02-15 12:49:59 21.7 24 21.5
003C0D44 2019-02-15 12:19:49 21.6 24 21.5
003C0D44 2019-02-15 11:49:40 21.6 24 21.3
003C0D44 2019-02-15 11:19:30 21.6 24 21.3
003C0D44 2019-02-15 10:49:20 21.5 24 21.3
003C0D44 2019-02-15 10:19:11 21.5 24 21.4
003C0D44 2019-02-15 09:49:00 21.5 25 21.4
003C0D44 2019-02-15 09:18:51 21.4 25 21.3
003C0D44 2019-02-15 08:48:40 21.4 25 21.3
003C0D44 2019-02-15 08:18:29 21.3 25 21.4
003C0D44 2019-02-15 07:48:19 21.3 25 21.4
003C0D44 2019-02-15 07:18:09 21.3 25 21.4
003C0D44 2019-02-15 06:47:59 21.3 25 21.4
003C0D44 2019-02-15 06:17:50 21.3 25 21.3
003C0D44 2019-02-15 05:47:41 21.3 25 21.1
003C0D44 2019-02-15 05:17:31 21.3 25 21.2
003C0D44 2019-02-15 04:47:20 21.4 25 21
003C0D44 2019-02-15 04:17:11 21.3 25 21
003C0D44 2019-02-15 03:47:01 21.3 26 21
003C0D44 2019-02-15 03:16:52 21.4 26 21
003C0D44 2019-02-15 02:46:42 21.4 26 20.8
003C0D44 2019-02-15 02:16:32 21.4 26 20.7
003C0D44 2019-02-15 01:46:22 21.4 25 20.7
003C0D44 2019-02-15 01:16:12 21.4 25 20.5
003C0D44 2019-02-15 00:46:01 21.4 25 20.5
003C0D44 2019-02-15 00:15:52 21.5 25 20.4
003C0D44 2019-02-14 23:45:42 21.4 25 20.4
003C0D44 2019-02-14 23:15:33 21.5 25 20.3
003C0D44 2019-02-14 22:45:23 21.5 25 20.3
003C0D44 2019-02-14 22:15:13 21.5 25 20.2
003C0D44 2019-02-14 21:45:03 21.6 25 20
003C0D44 2019-02-14 21:14:52 21.6 25 19.8
003C0D44 2019-02-14 20:44:42 21.7 24 19.8
003C0D44 2019-02-14 20:14:32 21.7 24 19.7
003C0D44 2019-02-14 19:44:24 21.8 24 19.5
003C0D44 2019-02-14 19:14:14 21.9 24 19.6
003C0D44 2019-02-14 18:44:04 22.1 24 19.7
003C0D44 2019-02-14 18:42:54 21.9 24 19.7
003C0D44 2019-02-14 18:12:43 21.9 24 19.9
003C0D44 2019-02-14 17:42:33 21.9 24 20
003C0D44 2019-02-14 17:12:24 21.9 24 20
003C0D44 2019-02-14 16:42:16 21.9 24 20.2
003C0D44 2019-02-14 16:12:06 21.9 24 20
003C0D44 2019-02-14 15:41:57 21.8 24 20
003C0D44 2019-02-14 15:11:47 21.8 24 20.1
003C0D44 2019-02-14 14:41:37 21.7 24 20.2
003C0D44 2019-02-14 14:11:28 21.6 24 20.4
003C0D44 2019-02-14 13:41:18 21.6 24 20.4
003C0D44 2019-02-14 13:11:07 21.5 24 20.6
003C0D44 2019-02-14 12:40:59 21.4 23 20.7
003C0D44 2019-02-14 12:10:49 21.3 24 20.8
003C0D44 2019-02-14 11:40:40 21.3 24 20.8
003C0D44 2019-02-14 11:10:30 21.3 24 20.8
003C0D44 2019-02-14 10:40:20 21 24 20.9
003C0D44 2019-02-14 10:10:11 21 24 21
003C0D44 2019-02-14 09:40:02 20.9 24 21.1
003C0D44 2019-02-14 09:09:52 20.9 24 21.3
003C0D44 2019-02-14 08:39:42 20.8 24 21.4
003C0D44 2019-02-14 08:09:32 20.8 24 21.4
003C0D44 2019-02-14 07:39:22 20.8 25 21.4
003C0D44 2019-02-14 07:09:11 20.9 25 21.3
003C0D44 2019-02-14 06:39:01 20.9 25 21.3
003C0D44 2019-02-14 06:08:50 20.9 25 21.2
003C0D44 2019-02-14 05:38:40 20.9 25 21.1
003C0D44 2019-02-14 05:08:30 20.9 25 21
003C0D44 2019-02-14 04:38:21 20.9 25 20.9
003C0D44 2019-02-14 04:08:11 20.9 25 20.8
003C0D44 2019-02-14 03:38:01 20.9 25 20.8
003C0D44 2019-02-14 03:07:53 20.9 25 20.8
003C0D44 2019-02-14 02:37:43 20.9 25 20.8
003C0D44 2019-02-14 02:07:33 20.9 25 20.7
003C0D44 2019-02-14 01:37:23 20.9 25 20.6
003C0D44 2019-02-14 01:07:14 20.9 25 20.5
003C0D44 2019-02-14 00:37:04 20.9 25 20.4
003C0D44 2019-02-14 00:06:53 20.9 25 20.3
003C0D44 2019-02-13 23:36:43 20.9 25 20
003C0D44 2019-02-13 23:06:33 21 25 20
003C0D44 2019-02-13 22:36:24 21 25 20
003C0D44 2019-02-13 22:06:13 21 25 19.9
003C0D44 2019-02-13 21:36:04 21.1 25 19.8
003C0D44 2019-02-13 21:05:53 21.1 25 19.8
003C0D44 2019-02-13 20:35:44 21.2 25 19.8
003C0D44 2019-02-13 20:05:33 21.3 25 19.5
003C0D44 2019-02-13 19:35:21 21.3 25 21
003C0D44 2019-02-13 19:05:11 21.4 25 20.8
003C0D44 2019-02-13 18:34:59 21.5 25 20.8
003C0D44 2019-02-13 18:04:48 21.7 26 20.7
003C0D44 2019-02-13 18:03:38 21.5 26 20.6
003C0D44 2019-02-13 17:33:28 21.4 26 20.6
003C0D44 2019-02-13 17:03:18 21.4 26 20.6
003C0D44 2019-02-13 16:33:07 21.4 25 20.7
003C0D44 2019-02-13 16:02:57 21.3 26 20.7
003C0D44 2019-02-13 15:32:47 21.2 25 20.7
003C0D44 2019-02-13 15:02:37 21.2 25 20.7
003C0D44 2019-02-13 14:32:27 21.2 24 20.6
003C0D44 2019-02-13 14:02:18 21.1 24 21.8
003C0D44 2019-02-13 13:32:07 21.2 24 21.9
003C0D44 2019-02-13 13:01:57 21.2 24 21.9
003C0D44 2019-02-13 12:31:46 21.1 24 21.9
003C0D44 2019-02-13 12:01:36 21.1 24 21.8
003C0D44 2019-02-13 11:31:24 21 24 21.9
003C0D44 2019-02-13 11:01:14 21 24 21.9
003C0D44 2019-02-13 10:31:03 20.9 23 21.8
003C0D44 2019-02-13 10:00:52 20.9 23 21.9
003C0D44 2019-02-13 09:30:41 20.9 22 21.9
003C0D44 2019-02-13 09:00:31 20.8 21 22
003C0D44 2019-02-13 08:30:22 20.8 21 21.8
003C0D44 2019-02-13 08:00:12 20.8 20 21.9
003C0D44 2019-02-13 07:30:01 20.8 19 20.7
003C0D44 2019-02-13 06:59:51 20.8 19 20.7
003C0D44 2019-02-13 06:29:40 20.8 19 20.6
003C0D44 2019-02-13 05:59:30 20.8 19 20.5
003C0D44 2019-02-13 05:29:20 20.8 19 21.8
003C0D44 2019-02-13 04:59:10 20.8 19 21.8
003C0D44 2019-02-13 04:29:01 20.8 19 21.8
003C0D44 2019-02-13 03:58:51 20.9 19 21.7
003C0D44 2019-02-13 03:28:42 20.9 19 21.7
003C0D44 2019-02-13 02:58:32 20.9 19 21.7
003C0D44 2019-02-13 02:28:22 20.9 19 21.7
003C0D44 2019-02-13 01:58:12 20.9 19 21.6
003C0D44 2019-02-13 01:28:03 20.9 19 20.3
003C0D44 2019-02-13 00:57:53 20.9 19 20.2
003C0D44 2019-02-13 00:27:43 21 19 20.2
003C0D44 2019-02-12 23:57:32 21 20 20
003C0D44 2019-02-12 23:27:22 21 20 20
003C0D44 2019-02-12 22:57:12 21 19 20
003C0D44 2019-02-12 22:27:03 21.1 19 19.9
003C0D44 2019-02-12 21:56:54 21.2 20 19.9
003C0D44 2019-02-12 21:26:43 21.2 20 19.8
003C0D44 2019-02-12 20:56:33 21.3 21 19.8
003C0D44 2019-02-12 20:26:24 21.4 21 19.7
003C0D44 2019-02-12 19:56:14 21.5 20 19.8
003C0D44 2019-02-12 19:26:05 21.5 20 19.7
003C0D44 2019-02-12 18:55:54 21.5 20 19.6
003C0D44 2019-02-12 18:25:44 21.6 19 19.7
003C0D44 2019-02-12 17:55:35 21.7 19 19.9
003C0D44 2019-02-12 17:25:25 21.9 19 20
003C0D44 2019-02-12 17:24:15 21.7 19 17.9
003C0D44 2019-02-12 16:54:07 21.8 19 17.8
003C0D44 2019-02-12 16:23:55 21.9 19 17.6
003C0D44 2019-02-12 15:53:44 21.9 19 17.7
003C0D44 2019-02-12 15:23:34 21.8 19 17.6
003C0D44 2019-02-12 14:53:25 21.7 19 17.5
003C0D44 2019-02-12 14:23:15 21.4 19 17.5
003C0D44 2019-02-12 13:53:04 21.3 20 17.4
003C0D44 2019-02-12 13:22:52 21.3 20 17.4
003C0D44 2019-02-12 12:52:41 21.4 20 17.4
003C0D44 2019-02-12 12:22:30 21.3 20 17.5
003C0D44 2019-02-12 11:52:19 21.3 21 17.5
003C0D44 2019-02-12 11:22:09 21.3 21 17.4
003C0D44 2019-02-12 10:51:58 21.2 22 17.3
003C0D44 2019-02-12 10:21:48 21.1 22 17.2
003C0D44 2019-02-12 09:51:37 21.1 23 16.9
003C0D44 2019-02-12 09:21:26 21 23 16.8
003C0D44 2019-02-12 08:51:16 20.9 23 16.6
003C0D44 2019-02-12 08:21:04 20.8 24 16.3
003C0D44 2019-02-12 07:50:54 20.8 24 16.2
003C0D44 2019-02-12 07:20:44 20.8 25 16.2
003C0D44 2019-02-12 06:50:34 20.8 26 16.3
003C0D44 2019-02-12 06:20:23 20.9 26 16.1
003C0D44 2019-02-12 05:50:13 20.9 26 16
003C0D44 2019-02-12 05:20:02 20.9 26 16.5
003C0D44 2019-02-12 04:49:51 20.9 26 16.5
003C0D44 2019-02-12 04:19:42 20.9 26 16.5
003C0D44 2019-02-12 03:49:32 20.9 26 16.6
003C0D44 2019-02-12 03:19:23 20.9 26 16.6
003C0D44 2019-02-12 02:49:13 20.9 27 16.5
003C0D44 2019-02-12 02:19:04 20.9 27 16.4
003C0D44 2019-02-12 01:48:56 20.9 27 16.5
003C0D44 2019-02-12 01:18:44 21 27 16.7
003C0D44 2019-02-12 00:48:33 21 27 16.7
003C0D44 2019-02-12 00:18:22 21 27 16.7
003C0D44 2019-02-11 23:48:12 21 27 16.7
003C0D44 2019-02-11 23:18:01 21.1 27 16.8
003C0D44 2019-02-11 22:47:51 21.1 27 16.9
003C0D44 2019-02-11 22:17:40 21.1 27 17.2
003C0D44 2019-02-11 21:47:31 21.2 27 17.4
003C0D44 2019-02-11 21:17:23 21.3 27 17.9
003C0D44 2019-02-11 20:47:11 21.4 27 18.1
003C0D44 2019-02-11 20:17:01 21.4 27 18.4
003C0D44 2019-02-11 19:46:50 21.5 27 18.9
003C0D44 2019-02-11 19:16:40 21.6 27 19.4
003C0D44 2019-02-11 18:46:28 21.7 27 19.9
003C0D44 2019-02-11 18:16:17 21.9 27 20.5
003C0D44 2019-02-11 17:46:06 22.1 27 21.5
003C0D44 2019-02-11 17:15:54 22.2 27 23.1
003C0D44 2019-02-11 16:45:40 22.2 31 0